Time,TemperatureF,DewpointF,PressureIn,WindDirection,WindDirectionDegrees,WindSpeedMPH,WindSpeedGustMPH,Humidity,HourlyPrecipIn,Conditions,Clouds,dailyrainin,SolarRadiationWatts/m^2,SoftwareType,DateUTC
2013-08-30 00:09:00,72.7,56.0,30.06,SSE,162,0.0,1.0,57,0.00,,,0.00,0,weatherlink.com 1.10,2013-08-30 07:09:00,
2013-08-30 00:24:00,72.9,56.0,30.06,SSE,162,0.0,1.0,55,0.00,,,0.00,0,weatherlink.com 1.10,2013-08-30 07:24:00,
2013-08-30 00:39:00,73.5,55.0,30.05,North,5,2.0,3.0,53,0.00,,,0.00,0,weatherlink.com 1.10,2013-08-30 07:39:00,
2013-08-30 00:54:00,74.2,55.0,30.05,North,5,0.0,1.0,52,0.00,,,0.00,0,weatherlink.com 1.10,2013-08-30 07:54:00,
2013-08-30 01:09:00,74.3,55.0,30.05,North,5,0.0,1.0,52,0.00,,,0.00,0,weatherlink.com 1.10,2013-08-30 08:09:00,
2013-08-30 01:24:00,74.2,56.0,30.04,North,5,0.0,1.0,54,0.00,,,0.00,0,weatherlink.com 1.10,2013-08-30 08:24:00,
2013-08-30 01:39:00,73.3,57.0,30.04,North,5,0.0,1.0,56,0.00,,,0.00,0,weatherlink.com 1.10,2013-08-30 08:39:00,
2013-08-30 01:54:00,72.6,57.0,30.04,North,5,0.0,1.0,58,0.00,,,0.00,0,weatherlink.com 1.10,2013-08-30 08:54:00,
2013-08-30 02:09:00,72.4,57.0,30.04,North,5,0.0,0.0,59,0.00,,,0.00,0,weatherlink.com 1.10,2013-08-30 09:09:00,
2013-08-30 02:24:00,72.2,56.0,30.03,North,5,0.0,1.0,57,0.00,,,0.00,0,weatherlink.com 1.10,2013-08-30 09:24:00,
2013-08-30 02:39:00,72.6,58.0,30.03,North,5,0.0,0.0,60,0.00,,,0.00,0,weatherlink.com 1.10,2013-08-30 09:39:00,
2013-08-30 02:54:00,72.8,57.0,30.03,North,5,0.0,0.0,58,0.00,,,0.00,0,weatherlink.com 1.10,2013-08-30 09:54:00,
2013-08-30 03:09:00,72.6,58.0,30.02,North,5,0.0,1.0,61,0.00,,,0.00,0,weatherlink.com 1.10,2013-08-30 10:09:00,
2013-08-30 03:24:00,74.2,57.0,30.02,North,350,0.0,3.0,56,0.00,,,0.00,0,weatherlink.com 1.10,2013-08-30 10:24:00,
2013-08-30 03:39:00,74.3,60.0,30.02,North,350,0.0,0.0,62,0.00,,,0.00,0,weatherlink.com 1.10,2013-08-30 10:39:00,
2013-08-30 03:54:00,73.8,60.0,30.02,North,350,0.0,1.0,63,0.00,,,0.00,0,weatherlink.com 1.10,2013-08-30 10:54:00,
2013-08-30 04:09:00,73.2,59.0,30.03,North,350,0.0,0.0,62,0.00,,,0.00,0,weatherlink.com 1.10,2013-08-30 11:09:00,
2013-08-30 04:24:00,73.3,60.0,30.03,North,350,0.0,0.0,64,0.00,,,0.00,0,weatherlink.com 1.10,2013-08-30 11:24:00,
2013-08-30 04:39:00,73.5,61.0,30.03,North,350,0.0,0.0,66,0.00,,,0.00,0,weatherlink.com 1.10,2013-08-30 11:39:00,
2013-08-30 04:54:00,73.1,61.0,30.03,North,350,0.0,0.0,67,0.00,,,0.00,0,weatherlink.com 1.10,2013-08-30 11:54:00,
2013-08-30 05:09:00,72.2,60.0,30.03,North,350,0.0,0.0,65,0.00,,,0.00,0,weatherlink.com 1.10,2013-08-30 12:09:00,
2013-08-30 05:24:00,72.3,58.0,30.04,SE,136,0.0,1.0,60,0.00,,,0.00,0,weatherlink.com 1.10,2013-08-30 12:24:00,
2013-08-30 05:39:00,72.1,58.0,30.04,SE,136,0.0,1.0,62,0.00,,,0.00,0,weatherlink.com 1.10,2013-08-30 12:39:00,
2013-08-30 05:54:00,71.7,58.0,30.05,SE,136,0.0,0.0,63,0.00,,,0.00,0,weatherlink.com 1.10,2013-08-30 12:54:00,
2013-08-30 06:09:00,71.1,59.0,30.05,SE,136,0.0,0.0,65,0.00,,,0.00,0,weatherlink.com 1.10,2013-08-30 13:09:00,
2013-08-30 06:24:00,70.5,59.0,30.06,SE,136,0.0,0.0,67,0.00,,,0.00,0,weatherlink.com 1.10,2013-08-30 13:24:00,
2013-08-30 06:39:00,69.9,60.0,30.06,SE,136,0.0,0.0,70,0.00,,,0.00,9,weatherlink.com 1.10,2013-08-30 13:39:00,
2013-08-30 06:54:00,69.7,60.0,30.07,SE,136,0.0,0.0,71,0.00,,,0.00,14,weatherlink.com 1.10,2013-08-30 13:54:00,
2013-08-30 07:09:00,69.9,61.0,30.07,SE,136,0.0,0.0,73,0.00,,,0.00,30,weatherlink.com 1.10,2013-08-30 14:09:00,
2013-08-30 07:24:00,70.6,62.0,30.08,SE,136,0.0,0.0,73,0.00,,,0.00,123,weatherlink.com 1.10,2013-08-30 14:24:00,
2013-08-30 07:39:00,74.6,63.0,30.09,SE,136,0.0,0.0,68,0.00,,,0.00,167,weatherlink.com 1.10,2013-08-30 14:39:00,
2013-08-30 07:55:00,78.2,64.0,30.09,SE,136,0.0,0.0,61,0.00,,,0.00,225,weatherlink.com 1.10,2013-08-30 14:55:00,
2013-08-30 08:10:00,80.5,65.0,30.09,SE,136,0.0,0.0,59,0.00,,,0.00,42,weatherlink.com 1.10,2013-08-30 15:10:00,
2013-08-30 08:25:00,78.9,65.0,30.09,SE,136,0.0,0.0,63,0.00,,,0.00,63,weatherlink.com 1.10,2013-08-30 15:25:00,
2013-08-30 08:40:00,79.4,66.0,30.09,SSW,195,0.0,0.0,64,0.00,,,0.00,97,weatherlink.com 1.10,2013-08-30 15:40:00,
2013-08-30 08:55:00,81.0,65.0,30.09,South,180,0.0,1.0,59,0.00,,,0.00,151,weatherlink.com 1.10,2013-08-30 15:55:00,
2013-08-30 09:10:00,83.6,66.0,30.09,South,184,0.0,3.0,55,0.00,,,0.00,251,weatherlink.com 1.10,2013-08-30 16:10:00,
2013-08-30 09:25:00,84.7,66.0,30.10,SSE,161,0.0,4.0,53,0.00,,,0.00,287,weatherlink.com 1.10,2013-08-30 16:25:00,
2013-08-30 09:40:00,85.7,68.0,30.10,SSE,147,0.0,4.0,55,0.00,,,0.00,619,weatherlink.com 1.10,2013-08-30 16:40:00,
2013-08-30 09:55:00,87.9,68.0,30.09,SSE,161,1.0,7.0,52,0.00,,,0.00,612,weatherlink.com 1.10,2013-08-30 16:55:00,
2013-08-30 10:10:00,90.1,68.0,30.09,South,190,2.0,6.0,49,0.00,,,0.00,635,weatherlink.com 1.10,2013-08-30 17:10:00,
2013-08-30 10:25:00,91.0,69.0,30.09,SSE,150,4.0,9.0,48,0.00,,,0.00,657,weatherlink.com 1.10,2013-08-30 17:25:00,
2013-08-30 10:40:00,92.4,69.0,30.09,South,184,3.0,6.0,46,0.00,,,0.00,722,weatherlink.com 1.10,2013-08-30 17:40:00,
2013-08-30 10:55:00,91.7,68.0,30.09,SSE,153,5.0,11.0,46,0.00,,,0.00,800,weatherlink.com 1.10,2013-08-30 17:55:00,
2013-08-30 11:10:00,89.4,69.0,30.09,SE,142,8.0,10.0,51,0.00,,,0.00,397,weatherlink.com 1.10,2013-08-30 18:10:00,
2013-08-30 11:25:00,88.7,70.0,30.09,SSE,157,7.0,11.0,54,0.00,,,0.00,427,weatherlink.com 1.10,2013-08-30 18:25:00,
2013-08-30 11:40:00,89.0,70.0,30.09,SSW,193,6.0,12.0,54,0.00,,,0.00,663,weatherlink.com 1.10,2013-08-30 18:40:00,
2013-08-30 11:55:00,89.5,70.0,30.09,SSE,148,2.0,11.0,53,0.00,,,0.00,756,weatherlink.com 1.10,2013-08-30 18:55:00,
2013-08-30 12:10:00,87.7,70.0,30.09,SE,139,3.0,11.0,56,0.00,,,0.00,951,weatherlink.com 1.10,2013-08-30 19:10:00,
2013-08-30 12:26:00,89.9,70.0,30.09,SSE,150,4.0,9.0,53,0.00,,,0.00,844,weatherlink.com 1.10,2013-08-30 19:26:00,
2013-08-30 12:40:00,90.8,71.0,30.08,SSE,159,2.0,11.0,52,0.00,,,0.00,856,weatherlink.com 1.10,2013-08-30 19:40:00,
2013-08-30 12:55:00,91.9,71.0,30.08,South,172,7.0,9.0,51,0.00,,,0.00,870,weatherlink.com 1.10,2013-08-30 19:55:00,
2013-08-30 13:10:00,90.8,71.0,30.07,SE,138,3.0,11.0,53,0.00,,,0.00,738,weatherlink.com 1.10,2013-08-30 20:10:00,
2013-08-30 13:25:00,90.9,72.0,30.07,SW,217,5.0,10.0,54,0.00,,,0.00,833,weatherlink.com 1.10,2013-08-30 20:25:00,
2013-08-30 13:40:00,91.8,71.0,30.06,SW,234,6.0,11.0,51,0.00,,,0.00,828,weatherlink.com 1.10,2013-08-30 20:40:00,
2013-08-30 13:55:00,90.0,71.0,30.06,WSW,244,7.0,9.0,53,0.00,,,0.00,599,weatherlink.com 1.10,2013-08-30 20:55:00,
2013-08-30 14:10:00,90.7,71.0,30.05,SSW,213,4.0,8.0,53,0.00,,,0.00,796,weatherlink.com 1.10,2013-08-30 21:10:00,
2013-08-30 14:25:00,90.2,71.0,30.05,SW,235,4.0,10.0,53,0.00,,,0.00,780,weatherlink.com 1.10,2013-08-30 21:25:00,
2013-08-30 14:40:00,90.2,72.0,30.05,SW,218,4.0,7.0,55,0.00,,,0.00,735,weatherlink.com 1.10,2013-08-30 21:40:00,
2013-08-30 14:55:00,90.4,71.0,30.05,South,188,4.0,9.0,53,0.00,,,0.00,698,weatherlink.com 1.10,2013-08-30 21:55:00,
2013-08-30 15:10:00,89.8,72.0,30.04,SSW,203,0.0,7.0,55,0.00,,,0.00,671,weatherlink.com 1.10,2013-08-30 22:10:00,
2013-08-30 15:25:00,90.7,71.0,30.04,SW,232,5.0,7.0,53,0.00,,,0.00,436,weatherlink.com 1.10,2013-08-30 22:25:00,
2013-08-30 15:40:00,90.4,71.0,30.03,SSW,200,1.0,10.0,53,0.00,,,0.00,585,weatherlink.com 1.10,2013-08-30 22:40:00,
2013-08-30 15:55:00,91.4,72.0,30.03,SSW,192,0.0,6.0,53,0.00,,,0.00,687,weatherlink.com 1.10,2013-08-30 22:55:00,
2013-08-30 16:10:00,91.0,72.0,30.03,SW,229,1.0,6.0,53,0.00,,,0.00,554,weatherlink.com 1.10,2013-08-30 23:10:00,
2013-08-30 16:25:00,90.2,72.0,30.02,SE,144,4.0,7.0,55,0.00,,,0.00,545,weatherlink.com 1.10,2013-08-30 23:25:00,
2013-08-30 16:40:00,88.6,71.0,30.03,SSW,198,4.0,6.0,56,0.00,,,0.00,255,weatherlink.com 1.10,2013-08-30 23:40:00,
2013-08-30 16:55:00,87.7,71.0,30.03,SSW,193,3.0,6.0,58,0.00,,,0.00,265,weatherlink.com 1.10,2013-08-30 23:55:00,
2013-08-30 17:10:00,87.9,71.0,30.03,WSW,242,3.0,6.0,58,0.00,,,0.00,209,weatherlink.com 1.10,2013-08-31 00:10:00,
2013-08-30 17:25:00,87.5,72.0,30.03,SSE,165,0.0,4.0,60,0.00,,,0.00,394,weatherlink.com 1.10,2013-08-31 00:25:00,
2013-08-30 17:40:00,88.6,72.0,30.04,SSW,201,2.0,5.0,59,0.00,,,0.00,218,weatherlink.com 1.10,2013-08-31 00:40:00,
2013-08-30 17:55:00,88.3,72.0,30.04,SSW,209,2.0,7.0,58,0.00,,,0.00,292,weatherlink.com 1.10,2013-08-31 00:55:00,
2013-08-30 18:10:00,88.3,72.0,30.04,South,186,1.0,5.0,59,0.00,,,0.00,216,weatherlink.com 1.10,2013-08-31 01:10:00,
2013-08-30 18:26:00,88.3,72.0,30.03,SW,220,2.0,4.0,59,0.00,,,0.00,141,weatherlink.com 1.10,2013-08-31 01:26:00,
2013-08-30 18:41:00,87.5,72.0,30.03,SSW,196,1.0,6.0,60,0.00,,,0.00,70,weatherlink.com 1.10,2013-08-31 01:41:00,
2013-08-30 18:56:00,85.2,71.0,30.03,South,184,0.0,2.0,63,0.00,,,0.00,25,weatherlink.com 1.10,2013-08-31 01:56:00,
2013-08-30 19:11:00,83.4,72.0,30.03,SSE,153,2.0,4.0,68,0.00,,,0.00,16,weatherlink.com 1.10,2013-08-31 02:11:00,
2013-08-30 19:26:00,82.3,72.0,30.04,South,173,0.0,1.0,70,0.00,,,0.00,5,weatherlink.com 1.10,2013-08-31 02:26:00,
2013-08-30 19:41:00,81.1,70.0,30.04,SSE,155,0.0,2.0,70,0.00,,,0.00,0,weatherlink.com 1.10,2013-08-31 02:41:00,
2013-08-30 19:56:00,80.4,71.0,30.04,SSE,155,0.0,0.0,72,0.00,,,0.00,0,weatherlink.com 1.10,2013-08-31 02:56:00,
2013-08-30 20:11:00,79.6,70.0,30.05,SSE,155,0.0,1.0,72,0.00,,,0.00,0,weatherlink.com 1.10,2013-08-31 03:11:00,
2013-08-30 20:26:00,78.9,70.0,30.06,SSE,155,0.0,0.0,74,0.00,,,0.00,0,weatherlink.com 1.10,2013-08-31 03:26:00,
2013-08-30 20:41:00,78.1,70.0,30.06,SSE,155,0.0,0.0,75,0.00,,,0.00,0,weatherlink.com 1.10,2013-08-31 03:41:00,
2013-08-30 20:56:00,77.6,70.0,30.06,SSE,155,0.0,0.0,76,0.00,,,0.00,0,weatherlink.com 1.10,2013-08-31 03:56:00,
2013-08-30 21:11:00,77.2,70.0,30.07,SSE,155,0.0,0.0,78,0.00,,,0.00,0,weatherlink.com 1.10,2013-08-31 04:11:00,
2013-08-30 21:26:00,76.9,69.0,30.07,SSE,155,0.0,0.0,77,0.00,,,0.00,0,weatherlink.com 1.10,2013-08-31 04:26:00,
2013-08-30 21:41:00,76.9,69.0,30.07,SSE,155,0.0,0.0,76,0.00,,,0.00,0,weatherlink.com 1.10,2013-08-31 04:41:00,
2013-08-30 21:56:00,76.9,69.0,30.08,SSE,155,0.0,0.0,76,0.00,,,0.00,0,weatherlink.com 1.10,2013-08-31 04:56:00,
2013-08-30 22:11:00,76.7,69.0,30.07,SSE,155,0.0,0.0,77,0.00,,,0.00,0,weatherlink.com 1.10,2013-08-31 05:11:00,
2013-08-30 22:26:00,76.3,69.0,30.07,SSE,155,0.0,0.0,78,0.00,,,0.00,0,weatherlink.com 1.10,2013-08-31 05:26:00,
2013-08-30 22:41:00,76.0,69.0,30.07,SSE,155,0.0,0.0,79,0.00,,,0.00,0,weatherlink.com 1.10,2013-08-31 05:41:00,
2013-08-30 22:56:00,75.8,69.0,30.07,SSE,155,0.0,1.0,79,0.00,,,0.00,0,weatherlink.com 1.10,2013-08-31 05:56:00,
2013-08-30 23:11:00,75.8,69.0,30.07,SSE,155,0.0,0.0,79,0.00,,,0.00,0,weatherlink.com 1.10,2013-08-31 06:11:00,
2013-08-30 23:26:00,75.4,69.0,30.07,SSE,155,0.0,0.0,80,0.00,,,0.00,0,weatherlink.com 1.10,2013-08-31 06:26:00,
2013-08-30 23:41:00,74.9,69.0,30.07,SSE,155,0.0,0.0,81,0.00,,,0.00,0,weatherlink.com 1.10,2013-08-31 06:41:00,
2013-08-30 23:56:00,74.4,68.0,30.07,SSE,155,0.0,1.0,80,0.00,,,0.00,0,weatherlink.com 1.10,2013-08-31 06:56:00,